CW4611 Weather Reports


time (UTC)temp
C
wind
direction
speed
KPH
gust
KPH
rain 1hr
cm
rain 24hr
cm
rain mn
cm
humidity
%
barometer
mb
20260502223604 17 14 11.3 22.5 0.00 0.00 0.00 15 1020.2
20260502221605 17 14 11.3 24.1 0.00 0.00 0.00 14 1020.2
20260502221105 17 13 8.0 19.3 0.00 0.00 0.00 17 1020.3
20260502220606 17 12 8.0 22.5 0.00 0.00 0.00 17 1020.4
20260502214605 17 14 8.0 19.3 0.00 0.00 0.00 16 1020.8
20260502214104 17 14 6.4 16.1 0.00 0.00 0.00 16 1020.8
20260502213605 17 13 12.9 24.1 0.00 0.00 0.00 20 1021.0
20260502213105 17 14 12.9 29.0 0.00 0.00 0.00 20 1021.0
20260502211105 17 14 4.8 19.3 0.00 0.00 0.00 20 1021.3
20260502210626 17 14 9.7 20.9 0.00 0.00 0.00 20 1021.5
20260502210105 16 13 3.2 16.1 0.00 0.00 0.00 20 1021.6
20260502204604 17 14 11.3 19.3 0.00 0.00 0.00 20 1021.8
20260502204105 16 14 4.8 9.7 0.00 0.00 0.00 20 1021.9
20260502203105 16 14 8.0 19.3 0.00 0.00 0.00 20 1022.2
20260502201604 16 13 4.8 16.1 0.00 0.00 0.00 20 1022.5
20260502201105 16 14 8.0 16.1 0.00 0.00 0.00 20 1022.5
20260502200604 16 12 3.2 14.5 0.00 0.00 0.00 21 1022.6
20260502200105 16 14 4.8 24.1 0.00 0.00 0.00 19 1022.7
20260502194604 16 13 8.0 16.1 0.00 0.00 0.00 19 1022.7
20260502194104 16 14 11.3 20.9 0.00 0.00 0.00 19 1022.7
20260502193605 16 14 8.0 19.3 0.00 0.00 0.00 20 1022.8
20260502193105 16 14 8.0 29.0 0.00 0.00 0.00 22 1022.8
20260502191105 16 12 8.0 19.3 0.00 0.00 0.00 18 1023.0
20260502190605 16 14 6.4 24.1 0.00 0.00 0.00 20 1023.1
20260502190104 16 14 9.7 20.9 0.00 0.00 0.00 21 1023.2
20260502184605 16 13 4.8 24.1 0.00 0.00 0.00 20 1023.4
20260502184105 16 14 6.4 24.1 0.00 0.00 0.00 20 1023.4
20260502183605 15 14 3.2 12.9 0.00 0.00 0.00 20 1023.5
20260502183105 15 15 4.8 25.7 0.00 0.00 0.00 20 1023.6
20260502181605 15 13 8.0 14.5 0.00 0.00 0.00 21 1023.6
20260502180605 15 14 6.4 14.5 0.00 0.00 0.00 20 1023.8
20260502180105 15 11 8.0 24.1 0.00 0.00 0.00 21 1023.8
20260502170105 13 11 3.2 19.3 0.00 0.00 0.00 20 1024.5
20260502164104 13 13 3.2 11.3 0.00 0.00 0.00 20 1024.6
20260502163605 13 11 4.8 8.0 0.00 0.00 0.00 19 1024.5
20260502163105 12 9 4.8 11.3 0.00 0.00 0.00 20 1024.6
20260502161605 12 14 8.0 14.5 0.00 0.00 0.00 19 1024.7
20260502160604 12 13 6.4 11.3 0.00 0.00 0.00 20 1024.7
20260502160105 13 13 4.8 19.3 0.00 0.00 0.00 22 1024.8
20260502151605 10 12 3.2 9.7 0.00 0.00 0.00 29 1025.5
20260502151105 10 11 6.4 11.3 0.00 0.00 0.00 27 1025.5
20260502150604 9 10 8.0 9.7 0.00 0.00 0.00 28 1025.5
20260502150104 8 10 8.0 16.1 0.00 0.00 0.00 29 1025.5
20260502140105 4 10 8.0 16.1 0.00 0.00 0.00 43 1026.3
20260502130604 1 9 8.0 19.3 0.00 0.00 0.00 45 1026.3
20260502130105 1 10 12.9 20.9 0.00 0.00 0.00 44 1026.3
20260502123604 1 10 11.3 19.3 0.00 0.00 0.00 45 1026.0
20260502123104 1 10 11.3 24.1 0.00 0.00 0.00 44 1026.1
20260502121607 1 10 17.7 25.7 0.00 0.00 0.00 44 1026.0
20260502121105 1 11 11.3 19.3 0.00 0.00 0.00 45 1026.0
20260502120606 1 10 16.1 25.7 0.00 0.00 0.00 45 1025.9
20260502120105 1 10 16.1 25.7 0.00 0.00 0.00 44 1026.0
20260502114105 2 10 14.5 19.3 0.00 0.00 0.00 44 1025.9
20260502113604 2 10 14.5 24.1 0.00 0.00 0.00 44 1025.9
20260502113104 2 10 14.5 25.7 0.00 0.00 0.00 44 1025.9
20260502111604 2 10 19.3 29.0 0.00 0.00 0.00 44 1025.9
20260502110104 2 10 8.0 24.1 0.00 0.00 0.00 45 1026.0
20260502104605 2 10 11.3 24.1 0.00 0.00 0.00 45 1026.0
20260502104104 2 10 8.0 9.7 0.00 0.00 0.00 45 1025.9
20260502103605 2 9 9.7 16.1 0.00 0.00 0.00 45 1026.0
20260502101604 1 10 17.7 25.7 0.00 0.00 0.00 48 1026.0
20260502101105 1 10 19.3 27.4 0.00 0.00 0.00 49 1025.9
20260502100105 1 10 14.5 29.0 0.00 0.00 0.00 47 1025.7
20260502091104 2 10 16.1 24.1 0.00 0.00 0.00 44 1026.0
20260502090605 2 9 16.1 29.0 0.00 0.00 0.00 44 1026.1
20260502090104 3 11 12.9 24.1 0.00 0.00 0.00 43 1026.2
20260502080104 3 10 14.5 25.7 0.00 0.00 0.00 44 1026.5
20260502070604 2 10 9.7 19.3 0.00 0.00 0.00 43 1026.5
20260502070104 2 9 9.7 19.3 0.00 0.00 0.00 44 1026.6
20260502064605 2 9 9.7 22.5 0.00 0.00 0.00 45 1026.5
20260502064104 2 10 12.9 22.5 0.00 0.00 0.00 45 1026.3
20260502063104 3 10 14.5 24.1 0.00 0.00 0.00 42 1026.2
20260502061604 3 10 9.7 19.3 0.00 0.00 0.00 39 1026.2
20260502061106 3 9 14.5 19.3 0.00 0.00 0.00 41 1026.1
20260502060604 3 10 11.3 19.3 0.00 0.00 0.00 41 1026.1
20260502054604 3 10 14.5 24.1 0.00 0.00 0.00 40 1026.1
20260502054104 3 9 9.7 20.9 0.00 0.00 0.00 40 1026.0
20260502053604 3 10 11.3 22.5 0.00 0.00 0.00 40 1026.1
20260502053104 3 10 14.5 22.5 0.00 0.00 0.00 39 1026.0
20260502051605 5 10 16.1 25.7 0.00 0.00 0.00 34 1026.0
20260502051105 5 10 16.1 24.1 0.00 0.00 0.00 34 1026.0
20260502050104 5 10 11.3 19.3 0.00 0.00 0.00 34 1025.9
20260502044604 5 10 9.7 19.3 0.00 0.00 0.00 34 1025.9
20260502044104 5 9 11.3 19.3 0.00 0.00 0.00 34 1025.9
20260502043604 5 9 11.3 16.1 0.00 0.00 0.00 32 1025.9
20260502043104 5 9 8.0 16.1 0.00 0.00 0.00 32 1025.8
20260502041604 5 9 8.0 14.5 0.00 0.00 0.00 32 1025.8
20260502041104 5 9 6.4 11.3 0.00 0.00 0.00 32 1025.8
20260502040605 5 10 4.8 8.0 0.00 0.00 0.00 33 1025.7
20260502040104 5 11 1.6 4.8 0.00 0.00 0.00 36 1025.6
20260502034604 6 12 4.8 4.8 0.00 0.00 0.00 33 1025.4
20260502034104 6 15 0.0 3.2 0.00 0.00 0.00 30 1025.3
20260502033605 6 13 1.6 4.8 0.00 0.00 0.00 30 1025.2
20260502033104 6 14 4.8 4.8 0.00 0.00 0.00 28 1025.1
20260502031104 7 13 1.6 4.8 0.00 0.00 0.00 26 1024.9
20260502030604 8 13 3.2 4.8 0.00 0.00 0.00 25 1024.9
20260502030104 8 9 0.0 14.5 0.00 0.00 0.00 25 1024.8
20260502024604 8 9 9.7 19.3 0.00 0.00 0.00 24 1024.5
20260502024104 8 9 9.7 22.5 0.00 0.00 0.00 24 1024.4
20260502023604 8 9 8.0 16.1 0.00 0.00 0.00 25 1024.4
20260502021604 9 11 3.2 8.0 0.00 0.00 0.00 23 1024.2
20260502021104 9 12 1.6 4.8 0.00 0.00 0.00 22 1024.2
20260502020604 9 8 3.2 19.3 0.00 0.00 0.00 22 1024.2
20260502020104 10 9 4.8 19.3 0.00 0.00 0.00 23 1024.3
20260502014604 10 9 9.7 32.2 0.00 0.00 0.00 22 1024.1
20260502013105 10 9 9.7 29.0 0.00 0.00 0.00 20 1023.9
20260502011604 10 8 9.7 19.3 0.00 0.00 0.00 20 1023.9
20260502011104 10 9 8.0 20.9 0.00 0.00 0.00 20 1023.9
20260502010104 10 9 8.0 24.1 0.00 0.00 0.00 20 1023.8
20260502004604 11 9 11.3 19.3 0.00 0.00 0.00 19 1023.8
20260502003104 11 9 11.3 20.9 0.00 0.00 0.00 20 1023.8
20260502001604 11 8 14.5 25.7 0.00 0.00 0.00 21 1023.7
20260502001104 11 8 4.8 16.1 0.00 0.00 0.00 20 1023.7
20260502000104 11 9 16.1 32.2 0.00 0.00 0.00 20 1023.6
20260501234604 11 10 14.5 24.1 0.00 0.00 0.00 21 1023.6
20260501234104 11 9 14.5 24.1 0.00 0.00 0.00 21 1023.6
20260501233604 12 9 11.3 19.3 0.00 0.00 0.00 21 1023.6
20260501233104 12 9 14.5 32.2 0.00 0.00 0.00 20 1023.5
20260501231604 12 9 11.3 22.5 0.00 0.00 0.00 21 1023.5
20260501231104 12 9 11.3 20.9 0.00 0.00 0.00 21 1023.6
20260501230603 12 9 8.0 22.5 0.00 0.00 0.00 21 1023.5
20260501224604 12 9 14.5 22.5 0.00 0.00 0.00 22 1023.4
20260501224103 12 9 9.7 27.4 0.00 0.00 0.00 22 1023.4